| time (UTC) | temp F | wind direction | speed MPH | gust MPH | rain 1hr in | rain 24hr in | rain mn in | humidity % | barometer mb |
| 20260831151906 | 72 | 189 | 4.0 | 12.0 | 0.00 | 0.39 | 0.08 | 95 | 1018.9 |
| 20260831151407 | 72 | 239 | 1.0 | 5.0 | 0.00 | 0.39 | 0.08 | 95 | 1019.0 |
| 20260831150906 | 72 | 283 | 1.0 | 12.0 | 0.00 | 0.39 | 0.08 | 95 | 1018.9 |
| 20260831145906 | 72 | 240 | 2.0 | 9.0 | 0.00 | 0.39 | 0.08 | 96 | 1018.8 |
| 20260831145406 | 72 | 267 | 2.0 | 7.0 | 0.00 | 0.39 | 0.08 | 96 | 1018.8 |
| 20260831144906 | 72 | 210 | 2.0 | 10.0 | 0.00 | 0.39 | 0.08 | 96 | 1018.7 |
| 20260831144406 | 71 | 229 | 3.0 | 10.0 | 0.00 | 0.39 | 0.08 | 96 | 1018.7 |
| 20260831142907 | 71 | 242 | 3.0 | 10.0 | 0.00 | 0.40 | 0.08 | 96 | 1018.3 |
| 20260831142409 | 70 | 244 | 5.0 | 9.0 | 0.00 | 0.40 | 0.08 | 96 | 1018.3 |
| 20260831141906 | 70 | 236 | 2.0 | 12.0 | 0.01 | 0.40 | 0.08 | 96 | 1018.3 |
| 20260831141407 | 70 | 230 | 3.0 | 9.0 | 0.01 | 0.40 | 0.08 | 96 | 1018.3 |
| 20260831140908 | 70 | 201 | 0.0 | 5.0 | 0.01 | 0.41 | 0.08 | 96 | 1018.2 |
| 20260831140406 | 70 | 202 | 2.0 | 9.0 | 0.01 | 0.41 | 0.08 | 96 | 1018.2 |
| 20260831135906 | 70 | 179 | 1.0 | 9.0 | 0.01 | 0.42 | 0.08 | 96 | 1018.4 |
| 20260831135408 | 70 | 155 | 4.0 | 12.0 | 0.01 | 0.43 | 0.08 | 96 | 1018.3 |
| 20260831134906 | 70 | 224 | 4.0 | 9.0 | 0.01 | 0.48 | 0.08 | 96 | 1018.4 |
| 20260831133908 | 69 | 232 | 4.0 | 7.0 | 0.01 | 0.48 | 0.08 | 96 | 1018.5 |
| 20260831133407 | 69 | 243 | 5.0 | 9.0 | 0.01 | 0.48 | 0.08 | 96 | 1018.7 |
| 20260831132906 | 69 | 216 | 2.0 | 7.0 | 0.01 | 0.48 | 0.08 | 96 | 1018.8 |
| 20260831132408 | 69 | 192 | 1.0 | 7.0 | 0.01 | 0.48 | 0.08 | 96 | 1018.6 |
| 20260831131907 | 69 | 203 | 3.0 | 7.0 | 0.00 | 0.47 | 0.07 | 96 | 1018.7 |
| 20260831131406 | 69 | 200 | 7.0 | 16.0 | 0.00 | 0.47 | 0.07 | 96 | 1018.7 |
| 20260831130908 | 69 | 227 | 3.0 | 10.0 | 0.00 | 0.47 | 0.07 | 96 | 1018.8 |
| 20260831130406 | 69 | 223 | 5.0 | 15.0 | 0.00 | 0.47 | 0.07 | 96 | 1018.9 |
| 20260831125906 | 69 | 242 | 5.0 | 13.0 | 0.00 | 0.47 | 0.07 | 96 | 1018.9 |
| 20260831125408 | 69 | 217 | 4.0 | 12.0 | 0.00 | 0.47 | 0.07 | 96 | 1018.8 |
| 20260831124906 | 69 | 214 | 3.0 | 10.0 | 0.00 | 0.47 | 0.07 | 96 | 1018.9 |
| 20260831124406 | 69 | 204 | 3.0 | 10.0 | 0.00 | 0.47 | 0.07 | 95 | 1018.7 |
| 20260831123908 | 69 | 176 | 3.0 | 7.0 | 0.00 | 0.47 | 0.07 | 95 | 1018.7 |
| 20260831122906 | 69 | 211 | 6.0 | 13.0 | 0.00 | 0.47 | 0.07 | 94 | 1018.7 |
| 20260831121906 | 69 | 206 | 5.0 | 12.0 | 0.00 | 0.47 | 0.07 | 94 | 1018.6 |
| 20260831120908 | 69 | 188 | 5.0 | 10.0 | 0.00 | 0.47 | 0.07 | 94 | 1018.8 |
| 20260831120406 | 69 | 226 | 3.0 | 9.0 | 0.00 | 0.47 | 0.07 | 94 | 1018.7 |
| 20260831115906 | 69 | 220 | 3.0 | 9.0 | 0.00 | 0.47 | 0.07 | 95 | 1018.6 |
| 20260831115408 | 69 | 172 | 2.0 | 5.0 | 0.00 | 0.47 | 0.07 | 95 | 1018.7 |
| 20260831114907 | 69 | 204 | 1.0 | 7.0 | 0.01 | 0.47 | 0.07 | 95 | 1018.7 |
| 20260831114407 | 69 | 204 | 2.0 | 5.0 | 0.01 | 0.47 | 0.07 | 95 | 1018.8 |
| 20260831113908 | 69 | 210 | 2.0 | 7.0 | 0.01 | 0.47 | 0.07 | 95 | 1018.8 |
| 20260831113406 | 69 | 160 | 2.0 | 7.0 | 0.01 | 0.47 | 0.07 | 95 | 1018.8 |
| 20260831112906 | 69 | 147 | 1.0 | 3.0 | 0.01 | 0.47 | 0.07 | 95 | 1018.8 |
| 20260831112409 | 69 | 147 | 1.0 | 7.0 | 0.01 | 0.47 | 0.07 | 95 | 1018.7 |
| 20260831111906 | 69 | 179 | 3.0 | 10.0 | 0.01 | 0.47 | 0.07 | 95 | 1018.7 |
| 20260831111406 | 69 | 198 | 3.0 | 9.0 | 0.01 | 0.47 | 0.07 | 96 | 1018.8 |
| 20260831110908 | 69 | 206 | 5.0 | 10.0 | 0.01 | 0.47 | 0.07 | 95 | 1018.8 |
| 20260831110406 | 69 | 221 | 3.0 | 7.0 | 0.01 | 0.47 | 0.07 | 95 | 1018.7 |
| 20260831105907 | 69 | 178 | 3.0 | 9.0 | 0.01 | 0.47 | 0.07 | 95 | 1018.8 |
| 20260831105408 | 69 | 222 | 3.0 | 12.0 | 0.01 | 0.47 | 0.07 | 95 | 1018.6 |
| 20260831104906 | 70 | 220 | 4.0 | 12.0 | 0.00 | 0.46 | 0.06 | 95 | 1018.6 |
| 20260831104406 | 70 | 199 | 2.0 | 6.0 | 0.00 | 0.46 | 0.06 | 95 | 1018.7 |
| 20260831103406 | 70 | 218 | 2.0 | 9.0 | 0.01 | 0.46 | 0.06 | 94 | 1018.2 |
| 20260831102906 | 70 | 193 | 1.0 | 9.0 | 0.01 | 0.46 | 0.06 | 94 | 1018.3 |
| 20260831100908 | 70 | 215 | 1.0 | 6.0 | 0.01 | 0.46 | 0.06 | 94 | 1018.5 |
| 20260831100406 | 70 | 133 | 2.0 | 7.0 | 0.01 | 0.46 | 0.06 | 94 | 1018.4 |
| 20260831095408 | 69 | 156 | 1.0 | 9.0 | 0.01 | 0.46 | 0.06 | 94 | 1018.5 |
| 20260831094906 | 69 | 146 | 1.0 | 6.0 | 0.01 | 0.46 | 0.06 | 94 | 1018.5 |
| 20260831094406 | 69 | 149 | 1.0 | 7.0 | 0.01 | 0.46 | 0.06 | 94 | 1018.6 |
| 20260831093908 | 69 | 170 | 2.0 | 9.0 | 0.00 | 0.46 | 0.06 | 95 | 1018.6 |
| 20260831093406 | 69 | 245 | 2.0 | 6.0 | 0.00 | 0.46 | 0.06 | 95 | 1018.7 |
| 20260831092906 | 69 | 177 | 2.0 | 9.0 | 0.00 | 0.46 | 0.06 | 94 | 1018.7 |
| 20260831092408 | 69 | 161 | 3.0 | 7.0 | 0.00 | 0.46 | 0.06 | 94 | 1018.7 |
| 20260831091906 | 69 | 145 | 2.0 | 6.0 | 0.00 | 0.46 | 0.06 | 94 | 1018.7 |
| 20260831091406 | 69 | 198 | 1.0 | 6.0 | 0.01 | 0.46 | 0.06 | 94 | 1018.9 |
| 20260831090908 | 69 | 208 | 3.0 | 7.0 | 0.01 | 0.46 | 0.06 | 94 | 1018.9 |
| 20260831084906 | 69 | 170 | 3.0 | 12.0 | 0.01 | 0.46 | 0.06 | 94 | 1018.7 |
| 20260831084406 | 69 | 138 | 3.0 | 12.0 | 0.01 | 0.46 | 0.06 | 95 | 1018.7 |
| 20260831083406 | 68 | 162 | 5.0 | 10.0 | 0.01 | 0.46 | 0.06 | 96 | 1018.9 |
| 20260831082906 | 68 | 160 | 1.0 | 7.0 | 0.02 | 0.46 | 0.06 | 96 | 1019.0 |
| 20260831082408 | 68 | 140 | 1.0 | 6.0 | 0.02 | 0.46 | 0.06 | 96 | 1018.9 |
| 20260831081406 | 68 | 173 | 1.0 | 5.0 | 0.01 | 0.45 | 0.05 | 96 | 1019.0 |
| 20260831080908 | 68 | 210 | 1.0 | 7.0 | 0.01 | 0.45 | 0.05 | 96 | 1019.3 |
| 20260831075905 | 68 | 202 | 2.0 | 6.0 | 0.01 | 0.45 | 0.05 | 96 | 1019.4 |
| 20260831075408 | 68 | 230 | 1.0 | 5.0 | 0.01 | 0.45 | 0.05 | 96 | 1019.7 |
| 20260831074906 | 68 | 226 | 2.0 | 7.0 | 0.01 | 0.45 | 0.05 | 96 | 1019.8 |
| 20260831074406 | 68 | 230 | 3.0 | 7.0 | 0.01 | 0.45 | 0.05 | 96 | 1019.6 |
| 20260831073907 | 68 | 209 | 2.0 | 9.0 | 0.01 | 0.45 | 0.05 | 96 | 1019.6 |
| 20260831072906 | 68 | 162 | 1.0 | 10.0 | 0.01 | 0.44 | 0.04 | 96 | 1019.7 |
| 20260831072407 | 68 | 241 | 3.0 | 7.0 | 0.01 | 0.44 | 0.04 | 96 | 1019.8 |
| 20260831071906 | 68 | 210 | 2.0 | 15.0 | 0.01 | 0.44 | 0.04 | 96 | 1019.8 |
| 20260831071406 | 68 | 236 | 4.0 | 15.0 | 0.01 | 0.44 | 0.04 | 96 | 1019.7 |
| 20260831070907 | 68 | 229 | 4.0 | 9.0 | 0.01 | 0.44 | 0.04 | 96 | 1019.7 |
| 20260831070406 | 69 | 219 | 6.0 | 12.0 | 0.01 | 0.44 | 0.04 | 96 | 1019.8 |
| 20260831065906 | 69 | 191 | 3.0 | 9.0 | 0.02 | 0.44 | 0.04 | 96 | 1019.7 |
| 20260831065408 | 69 | 173 | 5.0 | 17.0 | 0.02 | 0.44 | 0.04 | 96 | 1019.6 |
| 20260831064905 | 69 | 219 | 4.0 | 16.0 | 0.02 | 0.44 | 0.04 | 96 | 1019.8 |
| 20260831063908 | 69 | 216 | 6.0 | 16.0 | 0.02 | 0.44 | 0.04 | 96 | 1019.9 |
| 20260831063406 | 68 | 204 | 6.0 | 12.0 | 0.01 | 0.43 | 0.03 | 96 | 1019.9 |
| 20260831062408 | 68 | 203 | 3.0 | 9.0 | 0.01 | 0.43 | 0.03 | 96 | 1020.1 |
| 20260831061906 | 68 | 185 | 4.0 | 10.0 | 0.02 | 0.43 | 0.03 | 96 | 1020.2 |
| 20260831061406 | 68 | 202 | 3.0 | 7.0 | 0.02 | 0.43 | 0.03 | 96 | 1020.3 |
| 20260831060908 | 68 | 198 | 1.0 | 7.0 | 0.02 | 0.43 | 0.03 | 96 | 1020.3 |
| 20260831060406 | 67 | 205 | 2.0 | 7.0 | 0.02 | 0.43 | 0.03 | 96 | 1020.5 |
| 20260831055906 | 67 | 238 | 4.0 | 12.0 | 0.01 | 0.43 | 0.02 | 96 | 1020.5 |
| 20260831055408 | 67 | 208 | 2.0 | 9.0 | 0.02 | 0.43 | 0.02 | 96 | 1020.5 |
| 20260831054906 | 67 | 241 | 1.0 | 6.0 | 0.02 | 0.43 | 0.02 | 96 | 1020.4 |
| 20260831054406 | 67 | 209 | 2.0 | 6.0 | 0.02 | 0.43 | 0.02 | 96 | 1020.5 |
| 20260831053908 | 67 | 212 | 1.0 | 9.0 | 0.02 | 0.43 | 0.02 | 96 | 1020.2 |
| 20260831053406 | 67 | 208 | 3.0 | 9.0 | 0.02 | 0.43 | 0.02 | 96 | 1020.2 |
| 20260831052906 | 67 | 218 | 1.0 | 9.0 | 0.02 | 0.43 | 0.02 | 96 | 1020.2 |
| 20260831052408 | 67 | 187 | 2.0 | 9.0 | 0.02 | 0.43 | 0.02 | 96 | 1020.1 |
| 20260831050908 | 67 | 227 | 2.0 | 7.0 | 0.02 | 0.42 | 0.02 | 96 | 1020.0 |
| 20260831050406 | 67 | 242 | 2.0 | 12.0 | 0.02 | 0.42 | 0.02 | 96 | 1020.3 |
| 20260831045906 | 67 | 251 | 1.0 | 6.0 | 0.02 | 0.42 | 0.02 | 96 | 1020.1 |
| 20260831045408 | 67 | 217 | 1.0 | 6.0 | 0.01 | 0.41 | 0.01 | 96 | 1020.1 |
| 20260831044905 | 67 | 264 | 4.0 | 10.0 | 0.01 | 0.41 | 0.01 | 96 | 1020.1 |
| 20260831044406 | 67 | 244 | 5.0 | 10.0 | 0.01 | 0.41 | 0.01 | 96 | 1020.1 |
| 20260831043908 | 68 | 289 | 3.0 | 12.0 | 0.01 | 0.41 | 0.01 | 96 | 1020.2 |
| 20260831042408 | 67 | 221 | 4.0 | 10.0 | 0.02 | 0.41 | 0.01 | 96 | 1019.9 |
| 20260831041905 | 67 | 195 | 5.0 | 13.0 | 0.01 | 0.40 | 0.00 | 96 | 1019.9 |
| 20260831040406 | 67 | 239 | 2.0 | 6.0 | 0.02 | 0.40 | 0.00 | 96 | 1020.2 |
| 20260831035905 | 67 | 237 | 1.0 | 6.0 | 0.02 | 0.40 | 0.40 | 96 | 1020.2 |
| 20260831034906 | 67 | 235 | 2.0 | 5.0 | 0.02 | 0.40 | 0.40 | 96 | 1020.4 |
| 20260831034405 | 67 | 236 | 2.0 | 9.0 | 0.02 | 0.40 | 0.40 | 96 | 1020.1 |
| 20260831033908 | 67 | 253 | 3.0 | 10.0 | 0.02 | 0.40 | 0.40 | 96 | 1020.3 |
| 20260831032905 | 67 | 289 | 0.0 | 6.0 | 0.03 | 0.40 | 0.40 | 96 | 1020.2 |
| 20260831031906 | 67 | 264 | 1.0 | 6.0 | 0.02 | 0.39 | 0.39 | 96 | 1020.0 |
| 20260831031406 | 67 | 268 | 0.0 | 1.0 | 0.02 | 0.39 | 0.39 | 96 | 1020.2 |
| 20260831030909 | 67 | 268 | 0.0 | 3.0 | 0.02 | 0.39 | 0.39 | 96 | 1020.4 |
| 20260831030407 | 67 | 268 | 1.0 | 5.0 | 0.02 | 0.39 | 0.39 | 96 | 1020.5 |
| 20260831025906 | 67 | 268 | 1.0 | 3.0 | 0.03 | 0.39 | 0.39 | 96 | 1020.6 |
| 20260831025408 | 67 | 268 | 1.0 | 3.0 | 0.03 | 0.39 | 0.39 | 96 | 1020.7 |
| 20260831024906 | 67 | 268 | 0.0 | 9.0 | 0.03 | 0.39 | 0.39 | 96 | 1020.7 |
| 20260831023908 | 67 | 245 | 2.0 | 6.0 | 0.03 | 0.38 | 0.38 | 96 | 1020.6 |
| 20260831023405 | 67 | 259 | 0.0 | 5.0 | 0.03 | 0.38 | 0.38 | 96 | 1020.4 |
| 20260831022905 | 67 | 259 | 2.0 | 5.0 | 0.03 | 0.37 | 0.37 | 96 | 1020.4 |
| 20260831022407 | 67 | 259 | 2.0 | 10.0 | 0.03 | 0.37 | 0.37 | 96 | 1020.6 |
| 20260831021906 | 67 | 262 | 1.0 | 5.0 | 0.04 | 0.37 | 0.37 | 96 | 1020.8 |
| 20260831021406 | 67 | 261 | 2.0 | 9.0 | 0.04 | 0.37 | 0.37 | 96 | 1020.7 |
| 20260831020908 | 67 | 250 | 2.0 | 10.0 | 0.04 | 0.36 | 0.36 | 96 | 1020.8 |
| 20260831020406 | 67 | 252 | 5.0 | 10.0 | 0.04 | 0.36 | 0.36 | 96 | 1020.8 |
| 20260831015905 | 67 | 280 | 4.0 | 13.0 | 0.03 | 0.35 | 0.35 | 96 | 1020.7 |
| 20260831015408 | 67 | 279 | 4.0 | 10.0 | 0.04 | 0.35 | 0.35 | 96 | 1020.9 |
| 20260831014905 | 67 | 284 | 3.0 | 7.0 | 0.04 | 0.35 | 0.35 | 96 | 1020.9 |
| 20260831014406 | 67 | 268 | 3.0 | 9.0 | 0.05 | 0.35 | 0.35 | 96 | 1020.9 |
| 20260831013908 | 67 | 251 | 4.0 | 10.0 | 0.04 | 0.35 | 0.35 | 96 | 1020.9 |
| 20260831013406 | 67 | 261 | 3.0 | 13.0 | 0.05 | 0.35 | 0.35 | 96 | 1020.9 |
| 20260831012905 | 68 | 258 | 2.0 | 9.0 | 0.04 | 0.34 | 0.34 | 96 | 1020.9 |
| 20260831011906 | 68 | 272 | 5.0 | 12.0 | 0.04 | 0.33 | 0.33 | 96 | 1020.8 |
| 20260831011406 | 67 | 29 | 0.0 | 0.0 | 0.04 | 0.33 | 0.33 | 96 | 1020.8 |
| 20260831010405 | 67 | 29 | 0.0 | 0.0 | 0.04 | 0.32 | 0.32 | 96 | 1020.6 |
| 20260831005906 | 67 | 29 | 0.0 | 0.0 | 0.05 | 0.32 | 0.32 | 96 | 1020.7 |
| 20260831005408 | 67 | 29 | 0.0 | 0.0 | 0.04 | 0.31 | 0.31 | 96 | 1020.5 |
| 20260831004905 | 67 | 29 | 0.0 | 0.0 | 0.04 | 0.31 | 0.31 | 96 | 1020.6 |
| 20260831004406 | 67 | 29 | 0.0 | 0.0 | 0.03 | 0.31 | 0.31 | 96 | 1020.6 |
| 20260831003908 | 67 | 29 | 0.0 | 0.0 | 0.03 | 0.31 | 0.31 | 96 | 1020.5 |
| 20260831003406 | 67 | 29 | 0.0 | 0.0 | 0.03 | 0.30 | 0.30 | 96 | 1020.5 |
| 20260831002906 | 67 | 29 | 0.0 | 0.0 | 0.03 | 0.30 | 0.30 | 96 | 1020.4 |
| 20260831002408 | 67 | 29 | 0.0 | 0.0 | 0.03 | 0.29 | 0.29 | 96 | 1020.4 |
| 20260831001906 | 67 | 27 | 0.0 | 0.0 | 0.03 | 0.29 | 0.29 | 96 | 1020.2 |
| 20260831001406 | 67 | 27 | 0.0 | 0.0 | 0.03 | 0.29 | 0.29 | 96 | 1020.3 |
| 20260831000405 | 67 | 25 | 0.0 | 0.0 | 0.03 | 0.28 | 0.28 | 96 | 1020.4 |
| 20260830235906 | 67 | 25 | 0.0 | 1.0 | 0.03 | 0.28 | 0.28 | 96 | 1020.3 |
| 20260830235408 | 67 | 25 | 0.0 | 3.0 | 0.03 | 0.28 | 0.28 | 96 | 1020.3 |
| 20260830234905 | 66 | 25 | 0.0 | 1.0 | 0.03 | 0.28 | 0.28 | 96 | 1019.9 |
| 20260830234406 | 66 | 25 | 0.0 | 1.0 | 0.04 | 0.28 | 0.28 | 96 | 1020.1 |
| 20260830233908 | 66 | 25 | 0.0 | 1.0 | 0.04 | 0.28 | 0.28 | 96 | 1020.1 |
| 20260830233406 | 66 | 25 | 0.0 | 1.0 | 0.04 | 0.27 | 0.27 | 96 | 1020.0 |
| 20260830232905 | 66 | 25 | 0.0 | 1.0 | 0.04 | 0.27 | 0.27 | 96 | 1020.0 |
| 20260830232408 | 67 | 25 | 0.0 | 1.0 | 0.03 | 0.26 | 0.26 | 96 | 1020.0 |
| 20260830231906 | 67 | 25 | 0.0 | 1.0 | 0.04 | 0.26 | 0.26 | 96 | 1019.9 |
| 20260830231405 | 66 | 25 | 0.0 | 0.0 | 0.05 | 0.26 | 0.26 | 96 | 1019.9 |
| 20260830230907 | 66 | 25 | 0.0 | 0.0 | 0.04 | 0.25 | 0.25 | 96 | 1019.9 |
| 20260830230406 | 66 | 25 | 0.0 | 1.0 | 0.04 | 0.25 | 0.25 | 96 | 1019.9 |
| 20260830225906 | 66 | 25 | 0.0 | 1.0 | 0.04 | 0.24 | 0.24 | 96 | 1020.0 |
| 20260830225407 | 66 | 25 | 0.0 | 0.0 | 0.05 | 0.24 | 0.24 | 96 | 1020.0 |
| 20260830224906 | 66 | 25 | 0.0 | 0.0 | 0.05 | 0.24 | 0.24 | 96 | 1020.0 |
| 20260830224406 | 66 | 25 | 0.0 | 0.0 | 0.04 | 0.24 | 0.24 | 96 | 1020.0 |
| 20260830223405 | 67 | 25 | 0.0 | 0.0 | 0.05 | 0.23 | 0.23 | 96 | 1020.1 |
| 20260830222905 | 67 | 25 | 0.0 | 0.0 | 0.06 | 0.23 | 0.23 | 96 | 1020.1 |
| 20260830222408 | 67 | 25 | 0.0 | 0.0 | 0.07 | 0.23 | 0.23 | 96 | 1020.1 |
| 20260830221405 | 66 | 24 | 0.0 | 0.0 | 0.08 | 0.21 | 0.21 | 96 | 1020.2 |
| 20260830220907 | 66 | 24 | 0.0 | 0.0 | 0.09 | 0.21 | 0.21 | 96 | 1020.1 |
| 20260830220405 | 66 | 24 | 0.0 | 0.0 | 0.09 | 0.21 | 0.21 | 96 | 1020.1 |
| 20260830215906 | 66 | 24 | 0.0 | 1.0 | 0.08 | 0.20 | 0.20 | 96 | 1020.1 |
| 20260830215408 | 66 | 24 | 0.0 | 1.0 | 0.07 | 0.20 | 0.20 | 96 | 1020.1 |
| 20260830214905 | 66 | 24 | 0.0 | 0.0 | 0.07 | 0.20 | 0.20 | 96 | 1020.0 |
| 20260830214406 | 66 | 24 | 1.0 | 1.0 | 0.07 | 0.20 | 0.20 | 96 | 1020.1 |
| 20260830213907 | 67 | 24 | 0.0 | 1.0 | 0.06 | 0.19 | 0.19 | 96 | 1020.0 |
| 20260830213405 | 67 | 24 | 1.0 | 3.0 | 0.06 | 0.18 | 0.18 | 96 | 1020.2 |
| 20260830212906 | 67 | 24 | 1.0 | 3.0 | 0.04 | 0.17 | 0.17 | 96 | 1020.2 |
| 20260830211906 | 67 | 19 | 0.0 | 1.0 | 0.02 | 0.15 | 0.15 | 96 | 1020.3 |
| 20260830211405 | 67 | 19 | 0.0 | 1.0 | 0.01 | 0.13 | 0.13 | 96 | 1020.2 |
| 20260830210908 | 67 | 19 | 0.0 | 1.0 | 0.00 | 0.13 | 0.13 | 96 | 1020.1 |
| 20260830210405 | 67 | 19 | 0.0 | 0.0 | 0.01 | 0.13 | 0.13 | 96 | 1020.2 |
| 20260830205905 | 67 | 19 | 0.0 | 0.0 | 0.01 | 0.13 | 0.13 | 96 | 1020.2 |
| 20260830204905 | 67 | 19 | 0.0 | 3.0 | 0.01 | 0.13 | 0.13 | 96 | 1020.1 |
| 20260830204405 | 68 | 19 | 1.0 | 3.0 | 0.01 | 0.13 | 0.13 | 96 | 1020.2 |
| 20260830203907 | 68 | 19 | 0.0 | 0.0 | 0.01 | 0.13 | 0.13 | 96 | 1020.2 |
| 20260830203405 | 68 | 19 | 0.0 | 0.0 | 0.01 | 0.13 | 0.13 | 96 | 1020.4 |
| 20260830202906 | 68 | 19 | 0.0 | 0.0 | 0.01 | 0.13 | 0.13 | 96 | 1020.3 |
| 20260830202407 | 68 | 19 | 0.0 | 0.0 | 0.01 | 0.13 | 0.13 | 95 | 1020.3 |
| 20260830201405 | 68 | 19 | 0.0 | 0.0 | 0.01 | 0.13 | 0.13 | 95 | 1020.4 |
| 20260830200908 | 68 | 19 | 0.0 | 0.0 | 0.01 | 0.13 | 0.13 | 95 | 1020.4 |
| 20260830200405 | 68 | 19 | 0.0 | 1.0 | 0.00 | 0.12 | 0.12 | 95 | 1020.7 |
| 20260830195905 | 68 | 19 | 0.0 | 1.0 | 0.00 | 0.12 | 0.12 | 95 | 1020.6 |
| 20260830195407 | 68 | 19 | 0.0 | 3.0 | 0.00 | 0.12 | 0.12 | 95 | 1020.7 |
| 20260830194905 | 68 | 19 | 1.0 | 3.0 | 0.00 | 0.12 | 0.12 | 95 | 1020.8 |
| 20260830193907 | 68 | 19 | 0.0 | 0.0 | 0.01 | 0.12 | 0.12 | 95 | 1020.6 |
| 20260830193405 | 68 | 19 | 0.0 | 0.0 | 0.01 | 0.12 | 0.12 | 95 | 1020.5 |
| 20260830192905 | 68 | 19 | 0.0 | 0.0 | 0.01 | 0.12 | 0.12 | 95 | 1020.6 |
| 20260830192407 | 68 | 19 | 0.0 | 1.0 | 0.01 | 0.12 | 0.12 | 95 | 1020.8 |
| 20260830191905 | 68 | 19 | 1.0 | 3.0 | 0.02 | 0.12 | 0.12 | 95 | 1020.8 |
| 20260830191406 | 68 | 19 | 1.0 | 3.0 | 0.02 | 0.12 | 0.12 | 95 | 1020.8 |
| 20260830190907 | 68 | 19 | 1.0 | 3.0 | 0.02 | 0.12 | 0.12 | 94 | 1020.8 |
| 20260830190405 | 68 | 19 | 1.0 | 5.0 | 0.02 | 0.12 | 0.12 | 94 | 1020.8 |
| 20260830185905 | 69 | 19 | 0.0 | 3.0 | 0.02 | 0.12 | 0.12 | 94 | 1020.8 |
| 20260830185408 | 69 | 19 | 1.0 | 3.0 | 0.02 | 0.12 | 0.12 | 94 | 1020.8 |
| 20260830184405 | 69 | 19 | 1.0 | 3.0 | 0.02 | 0.12 | 0.12 | 95 | 1020.9 |
| 20260830183907 | 69 | 19 | 0.0 | 1.0 | 0.02 | 0.11 | 0.11 | 95 | 1020.9 |
| 20260830183406 | 69 | 19 | 1.0 | 3.0 | 0.02 | 0.11 | 0.11 | 94 | 1020.8 |
| 20260830182905 | 69 | 19 | 2.0 | 5.0 | 0.02 | 0.11 | 0.11 | 94 | 1020.9 |
| 20260830182405 | 69 | 19 | 2.0 | 5.0 | 0.02 | 0.11 | 0.11 | 95 | 1020.9 |
| 20260830181906 | 69 | 20 | 1.0 | 5.0 | 0.01 | 0.10 | 0.10 | 95 | 1021.0 |
| 20260830181405 | 69 | 20 | 2.0 | 5.0 | 0.00 | 0.09 | 0.09 | 95 | 1020.9 |
| 20260830180907 | 69 | 20 | 2.0 | 6.0 | 0.00 | 0.09 | 0.09 | 95 | 1021.0 |
| 20260830180405 | 69 | 25 | 2.0 | 6.0 | 0.00 | 0.09 | 0.09 | 96 | 1020.9 |
| 20260830175905 | 69 | 64 | 1.0 | 5.0 | 0.00 | 0.09 | 0.09 | 96 | 1020.8 |
| 20260830175408 | 69 | 64 | 0.0 | 3.0 | 0.00 | 0.09 | 0.09 | 96 | 1020.9 |
| 20260830174906 | 69 | 64 | 0.0 | 0.0 | 0.00 | 0.09 | 0.09 | 96 | 1021.3 |
| 20260830173907 | 68 | 64 | 0.0 | 0.0 | 0.00 | 0.09 | 0.09 | 96 | 1021.2 |
| 20260830173405 | 68 | 64 | 0.0 | 0.0 | 0.00 | 0.09 | 0.09 | 96 | 1021.0 |
| 20260830172407 | 68 | 64 | 0.0 | 1.0 | 0.00 | 0.09 | 0.09 | 96 | 1021.3 |
| 20260830171905 | 68 | 64 | 1.0 | 3.0 | 0.00 | 0.09 | 0.09 | 96 | 1021.2 |
| 20260830170907 | 68 | 64 | 0.0 | 3.0 | 0.00 | 0.09 | 0.09 | 96 | 1021.0 |
| 20260830170405 | 68 | 64 | 1.0 | 3.0 | 0.00 | 0.09 | 0.09 | 96 | 1021.0 |
| 20260830165906 | 68 | 64 | 0.0 | 1.0 | 0.00 | 0.09 | 0.09 | 96 | 1021.0 |
| 20260830165408 | 68 | 64 | 1.0 | 3.0 | 0.00 | 0.09 | 0.09 | 96 | 1021.0 |
| 20260830164905 | 68 | 64 | 1.0 | 5.0 | 0.00 | 0.09 | 0.09 | 96 | 1021.0 |
| 20260830164405 | 68 | 64 | 1.0 | 3.0 | 0.00 | 0.09 | 0.09 | 96 | 1021.0 |
| 20260830163405 | 68 | 64 | 1.0 | 3.0 | 0.00 | 0.09 | 0.09 | 96 | 1020.9 |
| 20260830162905 | 68 | 64 | 0.0 | 0.0 | 0.00 | 0.09 | 0.09 | 96 | 1020.9 |
| 20260830162408 | 68 | 64 | 0.0 | 0.0 | 0.00 | 0.09 | 0.09 | 96 | 1021.0 |
| 20260830161905 | 68 | 64 | 0.0 | 1.0 | 0.00 | 0.09 | 0.09 | 96 | 1021.1 |
| 20260830161405 | 68 | 64 | 0.0 | 1.0 | 0.00 | 0.09 | 0.09 | 96 | 1020.9 |
| 20260830160907 | 68 | 64 | 0.0 | 0.0 | 0.00 | 0.09 | 0.09 | 96 | 1021.0 |
| 20260830155905 | 68 | 64 | 0.0 | 0.0 | 0.00 | 0.09 | 0.09 | 96 | 1021.1 |
| 20260830155407 | 67 | 64 | 0.0 | 0.0 | 0.00 | 0.09 | 0.09 | 96 | 1021.1 |
| 20260830154905 | 67 | 64 | 0.0 | 1.0 | 0.00 | 0.09 | 0.09 | 96 | 1021.1 |
| 20260830154405 | 67 | 64 | 0.0 | 0.0 | 0.01 | 0.09 | 0.09 | 96 | 1021.1 |
| 20260830153405 | 67 | 64 | 0.0 | 0.0 | 0.01 | 0.09 | 0.09 | 96 | 1021.1 |
| 20260830152405 | 67 | 64 | 0.0 | 0.0 | 0.02 | 0.09 | 0.09 | 96 | 1021.3 |